Location: Hagen
(51.3456°N, 7.4557°E)
Time: 01:58:54
(UTC+02:00)

OTV 5 (USA 277) - Pass Details

Date: 31 July 2018
Orbit: 316 x 318 km, 54.5° (Epoch: 18 August)

Event Time Altitude Azimuth Distance (km) Brightness Sun altitude
Exits shadow 04:58:59 - 189° (S) 1,503 ? -7.5°
Reaches altitude 10° 04:59:57 10° 176° (S) 1,219 ? -7.4°
Maximum altitude 05:01:36 15° 138° (SE) 981 ? -7.2°
Drops below altitude 10° 05:03:17 10° 99° (E) 1,224 ? -7.0°
Sets 05:05:46 0° 75° (ENE) 2,059 ? -6.8°
